Hourly Weather Roundup
Issued by NWS Central Illinois

Home | Current Version | Previous Version | Text Only | Print | Product List | Glossary On
Versions: 1 2 3 4 5 6 7 8 9 10 11 12 13 14 15 16 17 18 19 20 21 22 23 24 25 26 27 28 29 30 31 32 33 34 35 36 37 38 39 40 41 42 43 44 45 46 47 48 49 50
000
NZUS43 KILX 230610
HWRILX

Area Weather Roundup
National Weather Service Lincoln IL
100 AM CDT FRI JUN 23 2017

NOTE:  "FAIR" indicates few or no clouds below 12,000 feet, with
       no sigificant weather and/or obstructions to visibility.


CITY           SKY/WX    TMP DP  RH WIND       PRES   REMARKS
Bloomington    CLOUDY    74  72  93 SW12      29.75F
6HR MIN TEMP:  74; 6HR MAX TEMP:  76;

Champaign      CLOUDY    74  71  91 S10       29.75F
6HR MIN TEMP:  73; 6HR MAX TEMP:  78; 6HR PCP:  0.02;

Danville       CLOUDY    73  71  93 S9        29.73F
6HR MIN TEMP:  73; 6HR MAX TEMP:  75;

Decatur        CLOUDY    74  72  93 S10       29.74F
6HR MIN TEMP:  74; 6HR MAX TEMP:  75; 6HR PCP:  0.07;

Effingham      CLOUDY    75  74  99 SE5       29.77F
6HR MIN TEMP:  74; 6HR MAX TEMP:  75;

Flora          CLOUDY   N/A N/A N/A S8        29.76F
Galesburg      PTCLDY    74  71  91 S5        29.71F
6HR MIN TEMP:  74; 6HR MAX TEMP:  81;

Jacksonville   PTCLDY    75  73  93 S5        29.73R
6HR MIN TEMP:  74; 6HR MAX TEMP:  82;

Lacon          CLOUDY    75  73  93 SW7       29.70S
6HR MIN TEMP:  74; 6HR MAX TEMP:  82;

Lawrenceville  CLOUDY    74  73  97 S9        29.77F
6HR MIN TEMP:  73; 6HR MAX TEMP:  75; 6HR PCP:  0.05;

Litchfield     CLOUDY    74  73  97 S7        29.74F
6HR MIN TEMP:  74; 6HR MAX TEMP:  78;

$$


CITY           SKY/WX    TMP DP  RH WIND       PRES   REMARKS
Lincoln        CLOUDY    76  75  94 S3        29.74S
6HR MIN TEMP:  75; 6HR MAX TEMP:  81;

Macomb         CLOUDY    74  72  92 S7        29.74S
6HR MIN TEMP:  73; 6HR MAX TEMP:  82;

Mattoon        CLOUDY    74  74 100 S9        29.75F
6HR MIN TEMP:  73; 6HR MAX TEMP:  75; 6HR PCP: TRACE;

Mt Carmel AP   CLOUDY    74  73  93 S8        29.77F
6HR MIN TEMP:  73; 6HR MAX TEMP:  74;

Olney-Noble AP CLOUDY    74  74 100 S8        29.77S
Paris AP       CLOUDY    73  73  97 S9        29.77F
6HR MIN TEMP:  73; 6HR MAX TEMP:  74;

Peoria         CLOUDY    76  74  93 S9        29.72F
6HR MIN TEMP:  74; 6HR MAX TEMP:  83;

Pontiac        CLOUDY    75  74  98 S7        29.73F
6HR MIN TEMP:  74; 6HR MAX TEMP:  79;

Rantoul        CLOUDY    75  73  94 SW6       29.76S
6HR MIN TEMP:  74; 6HR MAX TEMP:  79;

Robinson       CLOUDY    73  73  97 S10       29.77F
6HR MIN TEMP:  73; 6HR MAX TEMP:  74;

Springfield    CLOUDY    77  75  93 S8        29.73S
6HR MIN TEMP:  77; 6HR MAX TEMP:  81;

Taylorville    CLOUDY    73  73  98 S10G18    29.74S
6HR MIN TEMP:  73; 6HR MAX TEMP:  75;

$$

...REGIONAL REPORTS...


CITY           SKY/WX    TMP DP  RH WIND       PRES   REMARKS
Chicago O`Hare CLOUDY    77  69  76 SW15G23   29.67F
Kankakee       CLOUDY    73  72  94 SW7       29.74F
Moline         CLEAR     76  71  85 S12       29.64F
Mount Sterling CLOUDY    73  72  97 S3        29.73S
Mount Vernon   CLOUDY    76  74  93 S8        29.75F
Pittsfield     CLOUDY    76  73  92 S5        29.73S
Quincy         CLOUDY    77  72  84 S7        29.72R
Rockford       CLOUDY    77  72  84 S9        29.67F
$$


CITY           SKY/WX    TMP DP  RH WIND       PRES   REMARKS
Burlington     CLOUDY    77  73  87 SW8       29.70F
Cedar Rapids   CLOUDY    75  73  93 SW9       29.65R
Des Moines     CLOUDY    72  69  90 N10       29.72R
Kirksville     CLEAR     73  71  93 SW3       29.73R
Ottumwa        PTCLDY    76  73  91 S6        29.68S
St Louis       MOCLDY    80  74  81 S8        29.73F HX  85
$$


CITY           SKY/WX    TMP DP  RH WIND       PRES   REMARKS
Terre Haute    CLOUDY    74  71  91 S10       29.77F
Evansville     MOCLDY    76  73  91 S7        29.79F
Indianapolis   CLOUDY    72  70  93 S9        29.78F
Lafayette      CLOUDY    72  71  97 VRB3      29.75F
Madison        TSTM      66  65  96 N7        29.67F
Milwaukee      CLOUDY    67  65  93 NE12      29.66F
$$






USA.gov is the U.S. government's official web portal to all federal, state and local government web resources and services.